timestamp,wind_dir_avg,wind_spd_max_dir,wind_spd_avg,wind_spd_gust,battery_voltage,lat,long
2017-12-09 00:00:00+00:00,277.0,280.0,3.79,4.73,,47.59359,-54.27349
2017-12-09 00:10:00+00:00,289.0,293.0,4.54,5.21,,47.59359,-54.27349
2017-12-09 00:20:00+00:00,288.0,285.0,3.76,4.42,,47.59359,-54.27349
2017-12-09 00:30:00+00:00,289.0,286.0,3.94,4.48,,47.59359,-54.27349
2017-12-09 00:40:00+00:00,299.0,305.0,4.33,5.84,,47.59359,-54.27349
2017-12-09 00:50:00+00:00,277.0,278.0,5.56,7.07,,47.59359,-54.27349
2017-12-09 01:00:00+00:00,294.0,293.0,5.33,6.43,,47.59359,-54.27349
2017-12-09 01:10:00+00:00,282.0,284.0,5.31,6.58,,47.59359,-54.27349
2017-12-09 01:20:00+00:00,283.0,287.0,5.29,6.34,,47.59359,-54.27349
2017-12-09 01:30:00+00:00,283.0,293.0,5.43,6.74,,47.59359,-54.27349
2017-12-09 01:40:00+00:00,287.0,295.0,7.09,8.39,,47.59359,-54.27349
2017-12-09 01:50:00+00:00,291.0,293.0,6.47,7.8,,47.59359,-54.27349
2017-12-09 02:00:00+00:00,285.0,289.0,5.44,7.38,,47.59359,-54.27349
2017-12-09 02:10:00+00:00,277.0,275.0,4.95,6.13,,47.59359,-54.27349
2017-12-09 02:20:00+00:00,267.0,277.0,6.22,7.2,,47.59359,-54.27349
2017-12-09 02:30:00+00:00,266.0,266.0,6.26,7.62,,47.59359,-54.27349
2017-12-09 02:40:00+00:00,270.0,271.0,5.07,5.72,,47.59359,-54.27349
2017-12-09 02:50:00+00:00,265.0,274.0,4.56,5.51,,47.59359,-54.27349
2017-12-09 03:00:00+00:00,268.0,259.0,4.52,5.31,,47.59359,-54.27349
2017-12-09 03:10:00+00:00,272.0,267.0,5.53,6.57,,47.59359,-54.27349
2017-12-09 03:20:00+00:00,276.0,269.0,5.1,6.13,,47.59359,-54.27349
2017-12-09 03:30:00+00:00,274.0,276.0,5.22,5.93,,47.59359,-54.27349
2017-12-09 03:40:00+00:00,275.0,269.0,5.05,5.83,,47.59359,-54.27349
2017-12-09 03:50:00+00:00,264.0,256.0,4.62,5.99,,47.59359,-54.27349
2017-12-09 04:00:00+00:00,261.0,256.0,5.48,6.42,,47.59359,-54.27349
2017-12-09 04:10:00+00:00,264.0,265.0,5.72,6.24,,47.59359,-54.27349
2017-12-09 04:20:00+00:00,255.0,251.0,5.49,6.53,,47.59359,-54.27349
2017-12-09 04:30:00+00:00,264.0,258.0,5.64,6.73,,47.59359,-54.27349
2017-12-09 04:40:00+00:00,261.0,256.0,6.83,7.56,,47.59359,-54.27349
2017-12-09 04:50:00+00:00,253.0,245.0,5.16,5.94,,47.59359,-54.27349
2017-12-09 05:00:00+00:00,252.0,251.0,5.84,6.82,,47.59359,-54.27349
2017-12-09 05:10:00+00:00,256.0,264.0,6.44,7.35,,47.59359,-54.27349
2017-12-09 05:20:00+00:00,246.0,247.0,5.3,6.03,,47.59359,-54.27349
2017-12-09 05:30:00+00:00,245.0,240.0,5.66,6.47,,47.59359,-54.27349
2017-12-09 05:40:00+00:00,239.0,239.0,5.05,5.66,,47.59359,-54.27349
2017-12-09 05:50:00+00:00,248.0,244.0,4.67,5.45,,47.59359,-54.27349
2017-12-09 06:00:00+00:00,256.0,249.0,5.14,5.61,,47.59359,-54.27349
2017-12-09 06:10:00+00:00,236.0,238.0,5.43,5.89,,47.59359,-54.27349
2017-12-09 06:20:00+00:00,232.0,233.0,4.82,5.34,,47.59359,-54.27349
2017-12-09 06:30:00+00:00,244.0,254.0,5.56,6.55,,47.59359,-54.27349
2017-12-09 06:40:00+00:00,250.0,247.0,6.16,6.67,,47.59359,-54.27349
2017-12-09 06:50:00+00:00,234.0,233.0,5.54,7.16,,47.59359,-54.27349
2017-12-09 07:00:00+00:00,232.0,234.0,4.85,5.9,,47.59359,-54.27349
2017-12-09 07:10:00+00:00,234.0,233.0,4.8,5.47,,47.59359,-54.27349
2017-12-09 07:20:00+00:00,244.0,244.0,5.07,5.97,,47.59359,-54.27349
2017-12-09 07:30:00+00:00,246.0,243.0,4.53,6.13,,47.59359,-54.27349
2017-12-09 07:40:00+00:00,241.0,235.0,5.16,6.18,,47.59359,-54.27349
2017-12-09 07:50:00+00:00,236.0,239.0,5.81,6.65,,47.59359,-54.27349
2017-12-09 08:00:00+00:00,241.0,244.0,5.05,5.95,,47.59359,-54.27349
2017-12-09 08:10:00+00:00,248.0,245.0,5.92,6.47,,47.59359,-54.27349
2017-12-09 08:20:00+00:00,243.0,254.0,5.62,7.11,,47.59359,-54.27349
2017-12-09 08:30:00+00:00,243.0,234.0,5.05,5.84,,47.59359,-54.27349
2017-12-09 08:40:00+00:00,243.0,246.0,5.24,6.1,,47.59359,-54.27349
2017-12-09 08:50:00+00:00,243.0,244.0,5.13,5.75,,47.59359,-54.27349
2017-12-09 09:00:00+00:00,253.0,257.0,6.34,6.93,,47.59359,-54.27349
2017-12-09 09:10:00+00:00,255.0,255.0,5.93,6.62,,47.59359,-54.27349
2017-12-09 09:20:00+00:00,249.0,247.0,5.35,5.87,,47.59359,-54.27349
2017-12-09 09:30:00+00:00,259.0,260.0,5.11,5.67,,47.59359,-54.27349
2017-12-09 09:40:00+00:00,268.0,271.0,4.4,5.24,,47.59359,-54.27349
2017-12-09 09:50:00+00:00,266.0,264.0,4.74,5.19,,47.59359,-54.27349
2017-12-09 10:00:00+00:00,277.0,277.0,5.39,5.82,,47.59359,-54.27349
2017-12-09 10:10:00+00:00,272.0,275.0,5.73,6.57,,47.59359,-54.27349
2017-12-09 10:20:00+00:00,285.0,287.0,6.53,7.05,,47.59359,-54.27349
2017-12-09 10:30:00+00:00,276.0,276.0,4.45,4.8,,47.59359,-54.27349
2017-12-09 10:40:00+00:00,267.0,273.0,4.28,4.83,,47.59359,-54.27349
2017-12-09 10:50:00+00:00,253.0,252.0,4.22,4.79,,47.59359,-54.27349
2017-12-09 11:00:00+00:00,239.0,239.0,4.01,4.79,,47.59359,-54.27349
2017-12-09 11:10:00+00:00,243.0,240.0,4.21,5.01,,47.59359,-54.27349
2017-12-09 11:20:00+00:00,255.0,251.0,4.05,4.5,,47.59359,-54.27349
2017-12-09 11:30:00+00:00,251.0,250.0,3.68,4.04,,47.59359,-54.27349
2017-12-09 11:40:00+00:00,252.0,249.0,3.18,3.41,,47.59359,-54.27349
2017-12-09 11:50:00+00:00,244.0,240.0,3.06,3.53,,47.59359,-54.27349
2017-12-09 12:00:00+00:00,251.0,250.0,4.2,4.81,,47.59359,-54.27349
2017-12-09 12:10:00+00:00,262.0,264.0,4.38,4.99,,47.59359,-54.27349
2017-12-09 12:20:00+00:00,280.0,276.0,4.11,4.59,,47.59359,-54.27349
2017-12-09 12:30:00+00:00,291.0,285.0,3.69,3.95,,47.59359,-54.27349
2017-12-09 12:40:00+00:00,276.0,276.0,3.25,3.54,,47.59359,-54.27349
2017-12-09 12:50:00+00:00,283.0,285.0,3.41,3.84,,47.59359,-54.27349
2017-12-09 13:00:00+00:00,257.0,256.0,4.8,5.41,,47.59359,-54.27349
2017-12-09 13:10:00+00:00,258.0,259.0,4.21,4.54,,47.59359,-54.27349
2017-12-09 13:20:00+00:00,273.0,273.0,4.36,4.9,,47.59359,-54.27349
2017-12-09 13:30:00+00:00,273.0,274.0,4.6,5.18,,47.59359,-54.27349
2017-12-09 13:40:00+00:00,275.0,275.0,3.9,4.28,,47.59359,-54.27349
2017-12-09 13:50:00+00:00,273.0,276.0,3.77,4.43,,47.59359,-54.27349
2017-12-09 14:00:00+00:00,282.0,283.0,4.07,4.59,,47.59359,-54.27349
2017-12-09 14:10:00+00:00,285.0,280.0,4.3,4.94,,47.59359,-54.27349
2017-12-09 14:20:00+00:00,298.0,298.0,3.91,4.31,,47.59359,-54.27349
2017-12-09 14:30:00+00:00,290.0,297.0,3.23,4.01,,47.59359,-54.27349
2017-12-09 14:40:00+00:00,303.0,307.0,3.11,3.53,,47.59359,-54.27349
2017-12-09 14:50:00+00:00,275.0,272.0,2.2,2.77,,47.59359,-54.27349
2017-12-09 15:00:00+00:00,253.0,251.0,1.97,2.19,,47.59359,-54.27349
2017-12-09 15:10:00+00:00,267.0,260.0,1.86,2.24,,47.59359,-54.27349
2017-12-09 15:20:00+00:00,287.0,286.0,1.91,2.19,,47.59359,-54.27349
2017-12-09 15:30:00+00:00,301.0,306.0,1.36,1.7,,47.59359,-54.27349
2017-12-09 15:40:00+00:00,306.0,304.0,1.2,1.49,,47.59359,-54.27349
2017-12-09 15:50:00+00:00,300.0,287.0,1.9,2.2,,47.59359,-54.27349
2017-12-09 16:00:00+00:00,309.0,312.0,2.35,2.78,,47.59359,-54.27349
2017-12-09 16:10:00+00:00,318.0,333.0,1.76,2.2,,47.59359,-54.27349
2017-12-09 16:20:00+00:00,1.0,3.0,2.55,2.92,,47.59359,-54.27349
2017-12-09 16:30:00+00:00,352.0,351.0,2.2,2.77,,47.59359,-54.27349
2017-12-09 16:40:00+00:00,350.0,349.0,1.81,2.33,,47.59359,-54.27349
2017-12-09 16:50:00+00:00,351.0,351.0,1.85,2.07,,47.59359,-54.27349
2017-12-09 17:00:00+00:00,351.0,356.0,1.57,1.87,,47.59359,-54.27349
2017-12-09 17:10:00+00:00,341.0,335.0,1.04,1.36,,47.59359,-54.27349
2017-12-09 17:20:00+00:00,17.0,18.0,1.67,2.15,,47.59359,-54.27349
2017-12-09 17:30:00+00:00,349.0,357.0,1.43,1.89,,47.59359,-54.27349
2017-12-09 17:40:00+00:00,351.0,342.0,2.1,2.46,,47.59359,-54.27349
2017-12-09 17:50:00+00:00,358.0,359.0,1.76,2.06,,47.59359,-54.27349
2017-12-09 18:00:00+00:00,18.0,17.0,1.78,2.11,,47.59359,-54.27349
2017-12-09 18:10:00+00:00,349.0,345.0,1.89,2.46,,47.59359,-54.27349
2017-12-09 18:20:00+00:00,21.0,14.0,2.11,2.8,,47.59359,-54.27349
2017-12-09 18:30:00+00:00,27.0,32.0,2.83,3.21,,47.59359,-54.27349
2017-12-09 18:40:00+00:00,352.0,353.0,2.33,2.87,,47.59359,-54.27349
2017-12-09 18:50:00+00:00,23.0,21.0,1.97,2.32,,47.59359,-54.27349
2017-12-09 19:00:00+00:00,357.0,0.0,2.01,2.29,,47.59359,-54.27349
2017-12-09 19:10:00+00:00,10.0,6.0,1.32,1.71,,47.59359,-54.27349
2017-12-09 19:20:00+00:00,29.0,23.0,2.41,2.62,,47.59359,-54.27349
2017-12-09 19:30:00+00:00,15.0,15.0,2.78,3.15,,47.59359,-54.27349
2017-12-09 19:40:00+00:00,41.0,41.0,2.52,3.1,,47.59359,-54.27349
2017-12-09 19:50:00+00:00,43.0,36.0,2.29,2.6,,47.59359,-54.27349
2017-12-09 20:00:00+00:00,37.0,41.0,1.78,2.07,,47.59359,-54.27349
2017-12-09 20:10:00+00:00,55.0,50.0,2.26,2.73,,47.59359,-54.27349
2017-12-09 20:20:00+00:00,31.0,36.0,2.05,2.34,,47.59359,-54.27349
2017-12-09 20:30:00+00:00,43.0,43.0,1.67,2.36,,47.59359,-54.27349
2017-12-09 20:40:00+00:00,52.0,38.0,1.49,2.0,,47.59359,-54.27349
2017-12-09 20:50:00+00:00,48.0,50.0,1.9,2.56,,47.59359,-54.27349
2017-12-09 21:00:00+00:00,68.0,70.0,1.85,2.17,,47.59359,-54.27349
2017-12-09 21:10:00+00:00,59.0,69.0,1.88,2.28,,47.59359,-54.27349
2017-12-09 21:20:00+00:00,71.0,68.0,1.74,2.1,,47.59359,-54.27349
2017-12-09 21:30:00+00:00,91.0,104.0,2.1,2.9,,47.59359,-54.27349
2017-12-09 21:40:00+00:00,95.0,87.0,2.11,3.39,,47.59359,-54.27349
2017-12-09 21:50:00+00:00,94.0,88.0,2.26,3.03,,47.59359,-54.27349
2017-12-09 22:00:00+00:00,93.0,91.0,2.62,3.23,,47.59359,-54.27349
2017-12-09 22:10:00+00:00,91.0,100.0,2.43,3.31,,47.59359,-54.27349
2017-12-09 22:20:00+00:00,100.0,117.0,2.48,3.32,,47.59359,-54.27349
2017-12-09 22:30:00+00:00,100.0,89.0,1.81,2.59,,47.59359,-54.27349
2017-12-09 22:40:00+00:00,109.0,97.0,2.37,3.24,,47.59359,-54.27349
2017-12-09 22:50:00+00:00,113.0,131.0,1.98,2.89,,47.59359,-54.27349
2017-12-09 23:00:00+00:00,96.0,97.0,2.0,3.11,,47.59359,-54.27349
2017-12-09 23:10:00+00:00,114.0,120.0,2.48,3.69,,47.59359,-54.27349
2017-12-09 23:20:00+00:00,134.0,136.0,3.67,4.18,,47.59359,-54.27349
2017-12-09 23:30:00+00:00,127.0,125.0,3.19,4.45,,47.59359,-54.27349
2017-12-09 23:40:00+00:00,126.0,138.0,2.15,3.3,,47.59359,-54.27349
2017-12-09 23:50:00+00:00,130.0,131.0,3.21,4.25,,47.59359,-54.27349
